This demonstration page uses our WeatherBlox Daily Observations layout. Learn more.

Left ArrowRight Arrow

39.01783, -85.05884

Hourly Observations for August 11, 2016

Temp ( °F °C ) Dew Point ( °F °C ) Humidity (%) Winds ( mph kmh ) Pressure ( in mb ) Visibility ( mi km ) Precip ( " mm )
12:52 am 00:52 Partly Cloudy 78 25.6 75 23.9 90 90 SE 5 7 30.06 1018 10 16 N/A
1:52 am 01:52 Mostly Cloudy 78 25.6 75 23.9 90 90 N N/A 30.07 1018 10 16 N/A
2:52 am 02:52 Cloudy 77 25 75 23.9 94 94 SE 3 6 30.06 1018 10 16 N/A
3:52 am 03:52 Cloudy 79 26.1 75 23.9 88 88 N N/A 30.06 1018 10 16 N/A
4:52 am 04:52 Cloudy 78 25.6 75 23.9 90 90 N N/A 30.04 1017 10 16 N/A
5:52 am 05:52 Mostly Cloudy 77 25 75 23.9 94 94 S 7 11 30.04 1017 10 16 N/A
6:52 am 06:52 Mostly Cloudy 76 24.4 74 23.3 94 94 S 6 9 30.05 1018 10 16 N/A
7:52 am 07:52 Partly Cloudy 77 25 74 23.3 90 90 S 7 11 30.06 1018 10 16 N/A
9:52 am 09:52 Mostly Sunny 84 28.9 74 23.3 72 72 SSW 7 11 30.07 1018 10 16 N/A
10:52 am 10:52 Partly Cloudy 86 30 74 23.3 67 67 SSW 8 13 30.06 1018 10 16 N/A
11:52 am 11:52 Partly Cloudy 86 30 74 23.3 67 67 S 13 20 30.06 1018 10 16 N/A
12:52 pm 12:52 Mostly Cloudy 87 30.6 74 23.3 65 65 SW 14 22 30.05 1018 10 16 N/A
1:52 pm 13:52 Mostly Cloudy 89 31.7 73 22.8 59 59 WSW 10 17 30.04 1017 10 16 N/A
2:52 pm 14:52 Mostly Cloudy 88 31.1 74 23.3 63 63 SSW 10 17 30.02 1017 10 16 N/A
3:52 pm 15:52 Mostly Cloudy 90 32.2 74 23.3 59 59 SW 8 13 29.99 1016 10 16 N/A
4:41 pm 16:41 Mostly Cloudy 84 29 75 24 74 74 S 15 24 29.97 1015 10 16 N/A
4:52 pm 16:52 Mostly Cloudy with Light Rain 84 28.9 75 23.9 74 74 SSW 9 15 29.99 1016 8 13 N/A
5:52 pm 17:52 Mostly Cloudy 88 31.1 75 23.9 66 66 SSW 12 19 29.97 1015 10 16 N/A
6:52 pm 18:52 Partly Cloudy 88 31.1 74 23.3 63 63 S 8 13 29.96 1015 10 16 N/A
7:52 pm 19:52 Partly Cloudy 86 30 73 22.8 65 65 SSW 9 15 29.96 1015 10 16 N/A
8:52 pm 20:52 Mostly Clear 83 28.3 73 22.8 72 72 SSW 6 9 29.95 1014 10 16 N/A
9:52 pm 21:52 Mostly Clear 80 26.7 74 23.3 82 82 S 6 9 29.95 1014 10 16 N/A
10:52 pm 22:52 Mostly Clear 80 26.7 73 22.8 79 79 S 6 9 29.95 1014 10 16 N/A
11:52 pm 23:52 Clear 79 26.1 73 22.8 82 82 S 5 7 29.95 1014 10 16 N/A

Powered by AerisWeather